Time,TemperatureF,DewpointF,PressureIn,WindDirection,WindDirectionDegrees,WindSpeedMPH,WindSpeedGustMPH,Humidity,HourlyPrecipIn,Conditions,Clouds,dailyrainin,SoftwareType,DateUTC
2013-02-08 00:01:00,19.0,16.0,30.30,North,-999,-999.0,-999.0,85,-99.99,,,-99.99,,2013-02-08 06:01:00,
2013-02-08 00:11:00,19.0,16.0,30.29,North,-999,-999.0,-999.0,85,-99.99,,,-99.99,,2013-02-08 06:11:00,
2013-02-08 00:21:00,19.0,16.0,30.29,North,-999,-999.0,-999.0,85,-99.99,,,-99.99,,2013-02-08 06:21:00,
2013-02-08 00:31:00,19.0,14.0,30.29,North,-999,-999.0,-999.0,79,-99.99,,,-99.99,,2013-02-08 06:31:00,
2013-02-08 00:42:00,19.0,14.0,30.29,North,-999,-999.0,-999.0,79,-99.99,,,-99.99,,2013-02-08 06:42:00,
2013-02-08 00:51:00,19.0,14.0,30.29,North,-999,-999.0,-999.0,79,-99.99,,,-99.99,,2013-02-08 06:51:00,
2013-02-08 01:01:00,19.0,14.0,30.29,North,-999,-999.0,-999.0,79,-99.99,,,-99.99,,2013-02-08 07:01:00,
2013-02-08 01:11:00,19.0,14.0,30.29,North,-999,-999.0,-999.0,79,-99.99,,,-99.99,,2013-02-08 07:11:00,
2013-02-08 01:21:00,18.0,12.0,30.28,North,-999,-999.0,-999.0,78,-99.99,,,-99.99,,2013-02-08 07:21:00,
2013-02-08 01:32:00,18.0,14.0,30.27,North,-999,-999.0,-999.0,85,-99.99,,,-99.99,,2013-02-08 07:32:00,
2013-02-08 01:42:00,18.0,14.0,30.27,North,-999,-999.0,-999.0,85,-99.99,,,-99.99,,2013-02-08 07:42:00,
2013-02-08 01:51:00,16.0,12.0,30.28,North,-999,-999.0,-999.0,85,-99.99,,,-99.99,,2013-02-08 07:51:00,
2013-02-08 02:01:00,16.0,12.0,30.28,North,-999,-999.0,-999.0,85,-99.99,,,-99.99,,2013-02-08 08:01:00,
2013-02-08 02:11:00,14.0,10.0,30.28,North,-999,-999.0,-999.0,85,-99.99,,,-99.99,,2013-02-08 08:11:00,
2013-02-08 02:21:00,14.0,10.0,30.28,North,-999,-999.0,-999.0,85,-99.99,,,-99.99,,2013-02-08 08:21:00,
2013-02-08 02:32:00,16.0,10.0,30.29,North,-999,-999.0,-999.0,78,-99.99,,,-99.99,,2013-02-08 08:32:00,
2013-02-08 02:42:00,16.0,10.0,30.29,North,-999,-999.0,-999.0,78,-99.99,,,-99.99,,2013-02-08 08:42:00,
2013-02-08 02:52:00,16.0,10.0,30.30,North,-999,-999.0,-999.0,78,-99.99,,,-99.99,,2013-02-08 08:52:00,
2013-02-08 03:03:00,16.0,10.0,30.30,North,-999,-999.0,-999.0,78,-99.99,,,-99.99,,2013-02-08 09:03:00,
2013-02-08 03:11:00,16.0,10.0,30.29,North,-999,-999.0,-999.0,78,-99.99,,,-99.99,,2013-02-08 09:11:00,
2013-02-08 03:21:00,16.0,10.0,30.29,North,-999,-999.0,-999.0,78,-99.99,,,-99.99,,2013-02-08 09:21:00,
2013-02-08 03:32:00,16.0,10.0,30.29,North,-999,-999.0,-999.0,78,-99.99,,,-99.99,,2013-02-08 09:32:00,
2013-02-08 03:42:00,16.0,10.0,30.29,North,-999,-999.0,-999.0,78,-99.99,,,-99.99,,2013-02-08 09:42:00,
2013-02-08 03:52:00,14.0,10.0,30.30,North,-999,-999.0,-999.0,85,-99.99,,,-99.99,,2013-02-08 09:52:00,
2013-02-08 04:01:00,14.0,10.0,30.30,North,-999,-999.0,-999.0,85,-99.99,,,-99.99,,2013-02-08 10:01:00,
2013-02-08 04:11:00,12.0,9.0,30.29,North,-999,-999.0,-999.0,85,-99.99,,,-99.99,,2013-02-08 10:11:00,
2013-02-08 04:22:00,12.0,9.0,30.29,North,-999,-999.0,-999.0,85,-99.99,,,-99.99,,2013-02-08 10:22:00,
2013-02-08 04:31:00,12.0,9.0,30.29,North,-999,-999.0,-999.0,85,-99.99,,,-99.99,,2013-02-08 10:31:00,
2013-02-08 04:42:00,12.0,9.0,30.29,North,-999,-999.0,-999.0,85,-99.99,,,-99.99,,2013-02-08 10:42:00,
2013-02-08 04:51:00,12.0,9.0,30.30,North,-999,-999.0,-999.0,85,-99.99,,,-99.99,,2013-02-08 10:51:00,
2013-02-08 05:01:00,12.0,9.0,30.30,North,-999,-999.0,-999.0,85,-99.99,,,-99.99,,2013-02-08 11:01:00,
2013-02-08 05:11:00,12.0,9.0,30.30,North,-999,-999.0,-999.0,85,-99.99,,,-99.99,,2013-02-08 11:11:00,
2013-02-08 05:21:00,12.0,9.0,30.30,North,-999,-999.0,-999.0,85,-99.99,,,-99.99,,2013-02-08 11:21:00,
2013-02-08 05:32:00,12.0,9.0,30.29,North,-999,-999.0,-999.0,85,-99.99,,,-99.99,,2013-02-08 11:32:00,
2013-02-08 05:42:00,12.0,9.0,30.29,North,-999,-999.0,-999.0,85,-99.99,,,-99.99,,2013-02-08 11:42:00,
2013-02-08 05:52:00,12.0,9.0,30.29,North,-999,-999.0,-999.0,85,-99.99,,,-99.99,,2013-02-08 11:52:00,
2013-02-08 06:02:00,12.0,9.0,30.29,North,-999,-999.0,-999.0,85,-99.99,,,-99.99,,2013-02-08 12:02:00,
2013-02-08 06:11:00,12.0,9.0,30.28,North,-999,-999.0,-999.0,85,-99.99,,,-99.99,,2013-02-08 12:11:00,
2013-02-08 06:22:00,12.0,9.0,30.28,North,-999,-999.0,-999.0,85,-99.99,,,-99.99,,2013-02-08 12:22:00,
2013-02-08 06:33:00,10.0,7.0,30.28,North,-999,-999.0,-999.0,85,-99.99,,,-99.99,,2013-02-08 12:33:00,
2013-02-08 06:42:00,10.0,7.0,30.28,North,-999,-999.0,-999.0,85,-99.99,,,-99.99,,2013-02-08 12:42:00,
2013-02-08 06:52:00,10.0,7.0,30.28,North,-999,-999.0,-999.0,85,-99.99,,,-99.99,,2013-02-08 12:52:00,
2013-02-08 07:01:00,10.0,7.0,30.28,North,-999,-999.0,-999.0,85,-99.99,,,-99.99,,2013-02-08 13:01:00,
2013-02-08 07:11:00,10.0,7.0,30.28,North,-999,-999.0,-999.0,85,-99.99,,,-99.99,,2013-02-08 13:11:00,
2013-02-08 07:22:00,10.0,5.0,30.27,North,-999,-999.0,-999.0,78,-99.99,,,-99.99,,2013-02-08 13:22:00,
2013-02-08 07:32:00,9.0,5.0,30.27,North,-999,-999.0,-999.0,84,-99.99,,,-99.99,,2013-02-08 13:32:00,
2013-02-08 07:42:00,9.0,5.0,30.27,North,-999,-999.0,-999.0,84,-99.99,,,-99.99,,2013-02-08 13:42:00,
2013-02-08 07:51:00,9.0,5.0,30.27,North,-999,-999.0,-999.0,84,-99.99,,,-99.99,,2013-02-08 13:51:00,
2013-02-08 08:02:00,9.0,5.0,30.27,North,-999,-999.0,-999.0,84,-99.99,,,-99.99,,2013-02-08 14:02:00,
2013-02-08 08:11:00,10.0,7.0,30.27,North,-999,-999.0,-999.0,85,-99.99,,,-99.99,,2013-02-08 14:11:00,
2013-02-08 08:22:00,10.0,7.0,30.27,North,-999,-999.0,-999.0,85,-99.99,,,-99.99,,2013-02-08 14:22:00,
2013-02-08 08:32:00,10.0,7.0,30.27,North,-999,-999.0,-999.0,85,-99.99,,,-99.99,,2013-02-08 14:32:00,
2013-02-08 08:42:00,10.0,7.0,30.27,North,-999,-999.0,-999.0,85,-99.99,,,-99.99,,2013-02-08 14:42:00,
2013-02-08 08:52:00,10.0,7.0,30.28,North,-999,-999.0,-999.0,85,-99.99,,,-99.99,,2013-02-08 14:52:00,
2013-02-08 09:02:00,10.0,7.0,30.28,North,-999,-999.0,-999.0,85,-99.99,,,-99.99,,2013-02-08 15:02:00,
2013-02-08 09:11:00,10.0,7.0,30.28,North,-999,-999.0,-999.0,85,-99.99,,,-99.99,,2013-02-08 15:11:00,
2013-02-08 09:22:00,10.0,7.0,30.28,North,-999,-999.0,-999.0,85,-99.99,,,-99.99,,2013-02-08 15:22:00,
2013-02-08 09:32:00,10.0,7.0,30.28,North,-999,-999.0,-999.0,85,-99.99,,,-99.99,,2013-02-08 15:32:00,
2013-02-08 09:42:00,10.0,7.0,30.28,North,-999,-999.0,-999.0,85,-99.99,,,-99.99,,2013-02-08 15:42:00,
2013-02-08 09:52:00,12.0,9.0,30.28,North,-999,-999.0,-999.0,85,-99.99,,,-99.99,,2013-02-08 15:52:00,
2013-02-08 10:01:00,12.0,9.0,30.28,North,-999,-999.0,-999.0,85,-99.99,,,-99.99,,2013-02-08 16:01:00,
2013-02-08 10:11:00,14.0,10.0,30.28,North,-999,-999.0,-999.0,85,-99.99,,,-99.99,,2013-02-08 16:11:00,
2013-02-08 10:22:00,14.0,10.0,30.28,North,-999,-999.0,-999.0,85,-99.99,,,-99.99,,2013-02-08 16:22:00,
2013-02-08 10:32:00,14.0,10.0,30.28,North,-999,-999.0,-999.0,85,-99.99,,,-99.99,,2013-02-08 16:32:00,
2013-02-08 10:42:00,14.0,10.0,30.28,North,-999,-999.0,-999.0,85,-99.99,,,-99.99,,2013-02-08 16:42:00,
2013-02-08 10:51:00,18.0,12.0,30.27,North,-999,-999.0,-999.0,78,-99.99,,,-99.99,,2013-02-08 16:51:00,
2013-02-08 11:03:00,18.0,12.0,30.27,North,-999,-999.0,-999.0,78,-99.99,,,-99.99,,2013-02-08 17:03:00,
2013-02-08 11:12:00,18.0,14.0,30.28,North,-999,-999.0,-999.0,85,-99.99,,,-99.99,,2013-02-08 17:12:00,
2013-02-08 11:22:00,18.0,14.0,30.28,North,-999,-999.0,-999.0,85,-99.99,,,-99.99,,2013-02-08 17:22:00,
2013-02-08 11:32:00,19.0,16.0,30.28,North,-999,-999.0,-999.0,85,-99.99,,,-99.99,,2013-02-08 17:32:00,
2013-02-08 11:42:00,19.0,16.0,30.28,North,-999,-999.0,-999.0,85,-99.99,,,-99.99,,2013-02-08 17:42:00,
2013-02-08 11:52:00,19.0,16.0,30.28,North,-999,-999.0,-999.0,85,-99.99,,,-99.99,,2013-02-08 17:52:00,
2013-02-08 12:02:00,19.0,16.0,30.28,North,-999,-999.0,-999.0,85,-99.99,,,-99.99,,2013-02-08 18:02:00,
2013-02-08 12:12:00,21.0,18.0,30.25,North,-999,-999.0,-999.0,85,-99.99,,,-99.99,,2013-02-08 18:12:00,
2013-02-08 12:24:00,21.0,18.0,30.25,North,-999,-999.0,-999.0,85,-99.99,,,-99.99,,2013-02-08 18:24:00,
2013-02-08 12:35:00,21.0,16.0,30.24,North,-999,-999.0,-999.0,79,-99.99,,,-99.99,,2013-02-08 18:35:00,
2013-02-08 12:43:00,21.0,16.0,30.24,North,-999,-999.0,-999.0,79,-99.99,,,-99.99,,2013-02-08 18:43:00,
2013-02-08 12:52:00,21.0,18.0,30.23,North,-999,-999.0,-999.0,85,-99.99,,,-99.99,,2013-02-08 18:52:00,
2013-02-08 13:02:00,21.0,18.0,30.23,North,-999,-999.0,-999.0,85,-99.99,,,-99.99,,2013-02-08 19:02:00,
2013-02-08 13:11:00,23.0,18.0,30.22,North,-999,-999.0,-999.0,79,-99.99,,,-99.99,,2013-02-08 19:11:00,
2013-02-08 13:22:00,23.0,18.0,30.22,North,-999,-999.0,-999.0,79,-99.99,,,-99.99,,2013-02-08 19:22:00,
2013-02-08 13:32:00,23.0,18.0,30.21,North,-999,-999.0,-999.0,79,-99.99,,,-99.99,,2013-02-08 19:32:00,
2013-02-08 13:42:00,23.0,18.0,30.21,North,-999,-999.0,-999.0,79,-99.99,,,-99.99,,2013-02-08 19:42:00,
2013-02-08 13:52:00,25.0,18.0,30.20,North,-999,-999.0,-999.0,73,-99.99,,,-99.99,,2013-02-08 19:52:00,
2013-02-08 14:02:00,25.0,18.0,30.20,North,-999,-999.0,-999.0,73,-99.99,,,-99.99,,2013-02-08 20:02:00,
2013-02-08 14:11:00,25.0,18.0,30.19,North,-999,-999.0,-999.0,73,-99.99,,,-99.99,,2013-02-08 20:11:00,
2013-02-08 14:22:00,25.0,18.0,30.19,North,-999,-999.0,-999.0,73,-99.99,,,-99.99,,2013-02-08 20:22:00,
2013-02-08 14:32:00,25.0,19.0,30.17,North,-999,-999.0,-999.0,79,-99.99,,,-99.99,,2013-02-08 20:32:00,
2013-02-08 14:42:00,25.0,19.0,30.17,North,-999,-999.0,-999.0,79,-99.99,,,-99.99,,2013-02-08 20:42:00,
2013-02-08 14:52:00,25.0,19.0,30.16,North,-999,-999.0,-999.0,79,-99.99,,,-99.99,,2013-02-08 20:52:00,
2013-02-08 15:02:00,25.0,19.0,30.16,North,-999,-999.0,-999.0,79,-99.99,,,-99.99,,2013-02-08 21:02:00,
2013-02-08 15:11:00,25.0,19.0,30.16,North,-999,-999.0,-999.0,79,-99.99,,,-99.99,,2013-02-08 21:11:00,
2013-02-08 15:22:00,25.0,19.0,30.15,North,-999,-999.0,-999.0,79,-99.99,,,-99.99,,2013-02-08 21:22:00,
2013-02-08 15:32:00,25.0,19.0,30.15,North,-999,-999.0,-999.0,79,-99.99,,,-99.99,,2013-02-08 21:32:00,
2013-02-08 15:42:00,25.0,19.0,30.15,North,-999,-999.0,-999.0,79,-99.99,,,-99.99,,2013-02-08 21:42:00,
2013-02-08 15:52:00,27.0,19.0,30.13,North,-999,-999.0,-999.0,73,-99.99,,,-99.99,,2013-02-08 21:52:00,
2013-02-08 16:02:00,27.0,19.0,30.13,North,-999,-999.0,-999.0,73,-99.99,,,-99.99,,2013-02-08 22:02:00,
2013-02-08 16:11:00,27.0,19.0,30.13,North,-999,-999.0,-999.0,73,-99.99,,,-99.99,,2013-02-08 22:11:00,
2013-02-08 16:22:00,27.0,19.0,30.13,North,-999,-999.0,-999.0,73,-99.99,,,-99.99,,2013-02-08 22:22:00,
2013-02-08 16:32:00,27.0,19.0,30.13,North,-999,-999.0,-999.0,73,-99.99,,,-99.99,,2013-02-08 22:32:00,
2013-02-08 16:42:00,27.0,19.0,30.13,North,-999,-999.0,-999.0,73,-99.99,,,-99.99,,2013-02-08 22:42:00,
2013-02-08 16:51:00,27.0,19.0,30.11,North,-999,-999.0,-999.0,73,-99.99,,,-99.99,,2013-02-08 22:51:00,
2013-02-08 17:01:00,27.0,19.0,30.11,North,-999,-999.0,-999.0,73,-99.99,,,-99.99,,2013-02-08 23:01:00,
2013-02-08 17:11:00,25.0,19.0,30.10,North,-999,-999.0,-999.0,79,-99.99,,,-99.99,,2013-02-08 23:11:00,
2013-02-08 17:21:00,25.0,19.0,30.10,North,-999,-999.0,-999.0,79,-99.99,,,-99.99,,2013-02-08 23:21:00,
2013-02-08 17:32:00,25.0,19.0,30.10,North,-999,-999.0,-999.0,79,-99.99,,,-99.99,,2013-02-08 23:32:00,
2013-02-08 17:42:00,25.0,19.0,30.10,North,-999,-999.0,-999.0,79,-99.99,,,-99.99,,2013-02-08 23:42:00,
2013-02-08 17:52:00,25.0,19.0,30.10,North,-999,-999.0,-999.0,79,-99.99,,,-99.99,,2013-02-08 23:52:00,
2013-02-08 18:02:00,25.0,19.0,30.10,North,-999,-999.0,-999.0,79,-99.99,,,-99.99,,2013-02-09 00:02:00,
2013-02-08 18:11:00,25.0,19.0,30.09,North,-999,-999.0,-999.0,79,-99.99,,,-99.99,,2013-02-09 00:11:00,
2013-02-08 18:22:00,25.0,19.0,30.09,North,-999,-999.0,-999.0,79,-99.99,,,-99.99,,2013-02-09 00:22:00,
2013-02-08 18:32:00,25.0,19.0,30.09,North,-999,-999.0,-999.0,79,-99.99,,,-99.99,,2013-02-09 00:32:00,
2013-02-08 18:42:00,25.0,19.0,30.09,North,-999,-999.0,-999.0,79,-99.99,,,-99.99,,2013-02-09 00:42:00,
2013-02-08 18:52:00,25.0,19.0,30.09,North,-999,-999.0,-999.0,79,-99.99,,,-99.99,,2013-02-09 00:52:00,
2013-02-08 19:01:00,25.0,19.0,30.09,North,-999,-999.0,-999.0,79,-99.99,,,-99.99,,2013-02-09 01:01:00,
2013-02-08 19:11:00,25.0,19.0,30.08,North,-999,-999.0,-999.0,79,-99.99,,,-99.99,,2013-02-09 01:11:00,
2013-02-08 19:22:00,25.0,19.0,30.08,North,-999,-999.0,-999.0,79,-99.99,,,-99.99,,2013-02-09 01:22:00,
2013-02-08 19:32:00,25.0,19.0,30.07,North,-999,-999.0,-999.0,79,-99.99,,,-99.99,,2013-02-09 01:32:00,
2013-02-08 19:42:00,25.0,19.0,30.07,North,-999,-999.0,-999.0,79,-99.99,,,-99.99,,2013-02-09 01:42:00,
2013-02-08 19:52:00,25.0,19.0,30.06,North,-999,-999.0,-999.0,79,-99.99,,,-99.99,,2013-02-09 01:52:00,
2013-02-08 20:01:00,25.0,19.0,30.06,North,-999,-999.0,-999.0,79,-99.99,,,-99.99,,2013-02-09 02:01:00,
2013-02-08 20:11:00,25.0,19.0,30.06,North,-999,-999.0,-999.0,79,-99.99,,,-99.99,,2013-02-09 02:11:00,
2013-02-08 20:21:00,25.0,19.0,30.06,North,-999,-999.0,-999.0,79,-99.99,,,-99.99,,2013-02-09 02:21:00,
2013-02-08 20:32:00,25.0,19.0,30.05,North,-999,-999.0,-999.0,79,-99.99,,,-99.99,,2013-02-09 02:32:00,
2013-02-08 20:42:00,25.0,19.0,30.05,North,-999,-999.0,-999.0,79,-99.99,,,-99.99,,2013-02-09 02:42:00,
2013-02-08 20:53:00,25.0,19.0,30.04,North,-999,-999.0,-999.0,79,-99.99,,,-99.99,,2013-02-09 02:53:00,
2013-02-08 21:02:00,25.0,19.0,30.04,North,-999,-999.0,-999.0,79,-99.99,,,-99.99,,2013-02-09 03:02:00,
2013-02-08 21:11:00,25.0,19.0,30.04,North,-999,-999.0,-999.0,79,-99.99,,,-99.99,,2013-02-09 03:11:00,
2013-02-08 21:22:00,25.0,19.0,30.04,North,-999,-999.0,-999.0,79,-99.99,,,-99.99,,2013-02-09 03:22:00,
2013-02-08 21:32:00,25.0,19.0,30.04,North,-999,-999.0,-999.0,79,-99.99,,,-99.99,,2013-02-09 03:32:00,
2013-02-08 21:42:00,25.0,19.0,30.04,North,-999,-999.0,-999.0,79,-99.99,,,-99.99,,2013-02-09 03:42:00,
2013-02-08 21:52:00,25.0,19.0,30.06,North,-999,-999.0,-999.0,79,-99.99,,,-99.99,,2013-02-09 03:52:00,
2013-02-08 22:02:00,25.0,19.0,30.06,North,-999,-999.0,-999.0,79,-99.99,,,-99.99,,2013-02-09 04:02:00,
2013-02-08 22:12:00,25.0,19.0,30.05,North,-999,-999.0,-999.0,79,-99.99,,,-99.99,,2013-02-09 04:12:00,
2013-02-08 22:23:00,25.0,19.0,30.05,North,-999,-999.0,-999.0,79,-99.99,,,-99.99,,2013-02-09 04:23:00,
2013-02-08 22:32:00,25.0,19.0,30.05,North,-999,-999.0,-999.0,79,-99.99,,,-99.99,,2013-02-09 04:32:00,
2013-02-08 22:42:00,25.0,19.0,30.05,North,-999,-999.0,-999.0,79,-99.99,,,-99.99,,2013-02-09 04:42:00,
2013-02-08 22:52:00,25.0,19.0,30.04,North,-999,-999.0,-999.0,79,-99.99,,,-99.99,,2013-02-09 04:52:00,
2013-02-08 23:02:00,25.0,19.0,30.04,North,-999,-999.0,-999.0,79,-99.99,,,-99.99,,2013-02-09 05:02:00,
2013-02-08 23:12:00,25.0,19.0,30.03,North,-999,-999.0,-999.0,79,-99.99,,,-99.99,,2013-02-09 05:12:00,
2013-02-08 23:22:00,25.0,19.0,30.03,North,-999,-999.0,-999.0,79,-99.99,,,-99.99,,2013-02-09 05:22:00,
2013-02-08 23:32:00,23.0,19.0,30.03,North,-999,-999.0,-999.0,85,-99.99,,,-99.99,,2013-02-09 05:32:00,
2013-02-08 23:42:00,23.0,19.0,30.03,North,-999,-999.0,-999.0,85,-99.99,,,-99.99,,2013-02-09 05:42:00,
2013-02-08 23:52:00,23.0,19.0,30.03,North,-999,-999.0,-999.0,85,-99.99,,,-99.99,,2013-02-09 05:52:00,